Time,TemperatureF,DewpointF,PressureIn,WindDirection,WindDirectionDegrees,WindSpeedMPH,WindSpeedGustMPH,Humidity,HourlyPrecipIn,Conditions,Clouds,dailyrainin,SoftwareType,DateUTC
2013-06-03 00:03:00,55.6,42.8,29.98,SSE,162,1.0,2.0,62,0.00,,,0.00,WeatherTracker,2013-06-03 05:03:00,
2013-06-03 00:08:00,55.3,42.5,29.98,SSE,162,1.0,2.0,62,0.00,,,0.00,WeatherTracker,2013-06-03 05:08:00,
2013-06-03 00:13:00,55.1,42.3,29.98,SSE,162,0.0,2.0,62,0.00,,,0.00,WeatherTracker,2013-06-03 05:13:00,
2013-06-03 00:18:00,54.8,42.4,29.97,SSE,162,0.0,1.0,63,0.00,,,0.00,WeatherTracker,2013-06-03 05:18:00,
2013-06-03 00:23:00,54.5,42.2,29.97,SSE,162,1.0,1.0,63,0.00,,,0.00,WeatherTracker,2013-06-03 05:23:00,
2013-06-03 00:28:00,54.4,42.5,29.97,SSE,162,1.0,2.0,64,0.00,,,0.00,WeatherTracker,2013-06-03 05:28:00,
2013-06-03 00:33:00,54.2,42.3,29.97,SSE,162,1.0,2.0,64,0.00,,,0.00,WeatherTracker,2013-06-03 05:33:00,
2013-06-03 00:38:00,54.1,42.6,29.97,SSE,162,1.0,2.0,65,0.00,,,0.00,WeatherTracker,2013-06-03 05:38:00,
2013-06-03 00:43:00,53.9,42.4,29.97,SSE,163,1.0,2.0,65,0.00,,,0.00,WeatherTracker,2013-06-03 05:43:00,
2013-06-03 00:48:00,53.8,42.7,29.97,SSE,163,1.0,2.0,66,0.00,,,0.00,WeatherTracker,2013-06-03 05:48:00,
2013-06-03 00:53:00,53.6,42.5,29.97,SSE,163,0.0,2.0,66,0.00,,,0.00,WeatherTracker,2013-06-03 05:53:00,
2013-06-03 00:58:00,53.5,42.4,29.97,SSE,163,0.0,2.0,66,0.00,,,0.00,WeatherTracker,2013-06-03 05:58:00,
2013-06-03 01:03:00,53.3,42.6,29.97,SSE,163,1.0,1.0,67,0.00,,,0.00,WeatherTracker,2013-06-03 06:03:00,
2013-06-03 01:08:00,53.1,42.8,29.97,SSE,163,0.0,2.0,68,0.00,,,0.00,WeatherTracker,2013-06-03 06:08:00,
2013-06-03 01:13:00,52.8,42.5,29.97,SSE,163,0.0,2.0,68,0.00,,,0.00,WeatherTracker,2013-06-03 06:13:00,
2013-06-03 01:18:00,52.6,42.7,29.96,SSE,163,0.0,1.0,69,0.00,,,0.00,WeatherTracker,2013-06-03 06:18:00,
2013-06-03 01:23:00,52.3,42.4,29.96,SSE,163,0.0,0.0,69,0.00,,,0.00,WeatherTracker,2013-06-03 06:23:00,
2013-06-03 01:28:00,52.2,42.7,29.96,SSE,163,1.0,0.0,70,0.00,,,0.00,WeatherTracker,2013-06-03 06:28:00,
2013-06-03 01:33:00,52.0,42.5,29.96,SSE,163,0.0,1.0,70,0.00,,,0.00,WeatherTracker,2013-06-03 06:33:00,
2013-06-03 01:38:00,51.7,42.6,29.96,SSE,163,0.0,1.0,71,0.00,,,0.00,WeatherTracker,2013-06-03 06:38:00,
2013-06-03 01:43:00,51.6,42.5,29.96,SSE,159,1.0,1.0,71,0.00,,,0.00,WeatherTracker,2013-06-03 06:43:00,
2013-06-03 01:48:00,51.3,42.2,29.96,SSE,149,0.0,2.0,71,0.00,,,0.00,WeatherTracker,2013-06-03 06:48:00,
2013-06-03 01:53:00,51.1,42.4,29.96,SSE,149,0.0,2.0,72,0.00,,,0.00,WeatherTracker,2013-06-03 06:53:00,
2013-06-03 01:58:00,51.0,42.3,29.96,SSE,149,0.0,2.0,72,0.00,,,0.00,WeatherTracker,2013-06-03 06:58:00,
2013-06-03 02:03:00,50.7,42.0,29.96,SSE,149,0.0,2.0,72,0.00,,,0.00,WeatherTracker,2013-06-03 07:03:00,
2013-06-03 02:08:00,50.5,41.8,29.96,SSE,149,0.0,2.0,72,0.00,,,0.00,WeatherTracker,2013-06-03 07:08:00,
2013-06-03 02:14:00,50.4,41.7,29.95,SSE,149,0.0,1.0,72,0.00,,,0.00,WeatherTracker,2013-06-03 07:14:00,
2013-06-03 02:19:00,50.4,42.1,29.95,SSE,149,0.0,1.0,73,0.00,,,0.00,WeatherTracker,2013-06-03 07:19:00,
2013-06-03 02:24:00,50.1,41.8,29.95,SSE,149,1.0,1.0,73,0.00,,,0.00,WeatherTracker,2013-06-03 07:24:00,
2013-06-03 02:29:00,50.1,41.8,29.96,SSE,149,0.0,1.0,73,0.00,,,0.00,WeatherTracker,2013-06-03 07:29:00,
2013-06-03 02:34:00,49.9,41.9,29.96,SSE,149,0.0,1.0,74,0.00,,,0.00,WeatherTracker,2013-06-03 07:34:00,
2013-06-03 02:39:00,49.8,41.9,29.96,SSE,149,0.0,1.0,74,0.00,,,0.00,WeatherTracker,2013-06-03 07:39:00,
2013-06-03 02:44:00,49.6,42.0,29.96,SSE,149,0.0,1.0,75,0.00,,,0.00,WeatherTracker,2013-06-03 07:44:00,
2013-06-03 02:49:00,49.5,41.9,29.96,SSE,149,0.0,0.0,75,0.00,,,0.00,WeatherTracker,2013-06-03 07:49:00,
2013-06-03 02:54:00,49.4,41.8,29.96,SSE,149,0.0,1.0,75,0.00,,,0.00,WeatherTracker,2013-06-03 07:54:00,
2013-06-03 02:59:00,49.2,42.0,29.96,SSE,149,0.0,1.0,76,0.00,,,0.00,WeatherTracker,2013-06-03 07:59:00,
2013-06-03 03:04:00,49.1,41.9,29.96,SSE,149,0.0,0.0,76,0.00,,,0.00,WeatherTracker,2013-06-03 08:04:00,
2013-06-03 03:09:00,48.9,41.7,29.96,SSE,149,0.0,0.0,76,0.00,,,0.00,WeatherTracker,2013-06-03 08:09:00,
2013-06-03 03:14:00,48.8,41.6,29.96,SSE,149,1.0,0.0,76,0.00,,,0.00,WeatherTracker,2013-06-03 08:14:00,
2013-06-03 03:19:00,48.8,41.9,29.96,ESE,120,1.0,1.0,77,0.00,,,0.00,WeatherTracker,2013-06-03 08:19:00,
2013-06-03 03:24:00,48.8,41.9,29.96,ESE,114,0.0,2.0,77,0.00,,,0.00,WeatherTracker,2013-06-03 08:24:00,
2013-06-03 03:29:00,48.8,42.2,29.96,ESE,114,1.0,2.0,78,0.00,,,0.00,WeatherTracker,2013-06-03 08:29:00,
2013-06-03 03:34:00,48.8,42.2,29.96,ESE,114,1.0,1.0,78,0.00,,,0.00,WeatherTracker,2013-06-03 08:34:00,
2013-06-03 03:39:00,48.8,42.2,29.96,ESE,114,1.0,1.0,78,0.00,,,0.00,WeatherTracker,2013-06-03 08:39:00,
2013-06-03 03:44:00,48.9,42.7,29.95,ESE,114,1.0,1.0,79,0.00,,,0.00,WeatherTracker,2013-06-03 08:44:00,
2013-06-03 03:50:00,49.1,42.9,29.95,ESE,112,1.0,1.0,79,0.00,,,0.00,WeatherTracker,2013-06-03 08:50:00,
2013-06-03 03:55:00,49.2,43.0,29.95,ESE,112,1.0,1.0,79,0.00,,,0.00,WeatherTracker,2013-06-03 08:55:00,
2013-06-03 04:00:00,49.4,43.5,29.95,ESE,111,1.0,2.0,80,0.00,,,0.00,WeatherTracker,2013-06-03 09:00:00,
2013-06-03 04:05:00,49.4,43.5,29.95,East,101,1.0,2.0,80,0.00,,,0.00,WeatherTracker,2013-06-03 09:05:00,
2013-06-03 04:10:00,49.4,43.5,29.95,ENE,66,1.0,3.0,80,0.00,,,0.00,WeatherTracker,2013-06-03 09:10:00,
2013-06-03 04:15:00,49.2,43.3,29.95,ENE,72,1.0,5.0,80,0.00,,,0.00,WeatherTracker,2013-06-03 09:15:00,
2013-06-03 04:20:00,49.2,43.6,29.95,East,83,0.0,5.0,81,0.00,,,0.00,WeatherTracker,2013-06-03 09:20:00,
2013-06-03 04:25:00,48.9,43.3,29.95,East,83,1.0,2.0,81,0.00,,,0.00,WeatherTracker,2013-06-03 09:25:00,
2013-06-03 04:30:00,48.8,43.2,29.95,East,90,1.0,2.0,81,0.00,,,0.00,WeatherTracker,2013-06-03 09:30:00,
2013-06-03 04:35:00,48.6,43.0,29.95,East,91,1.0,2.0,81,0.00,,,0.00,WeatherTracker,2013-06-03 09:35:00,
2013-06-03 04:40:00,48.5,42.9,29.95,East,94,1.0,2.0,81,0.00,,,0.00,WeatherTracker,2013-06-03 09:40:00,
2013-06-03 04:45:00,48.3,43.1,29.95,East,93,2.0,2.0,82,0.00,,,0.00,WeatherTracker,2013-06-03 09:45:00,
2013-06-03 04:50:00,48.2,43.0,29.95,East,91,0.0,2.0,82,0.00,,,0.00,WeatherTracker,2013-06-03 09:50:00,
2013-06-03 04:55:00,48.2,43.0,29.95,ESE,103,1.0,2.0,82,0.00,,,0.00,WeatherTracker,2013-06-03 09:55:00,
2013-06-03 05:01:00,48.0,42.8,29.95,East,100,2.0,2.0,82,0.00,,,0.00,WeatherTracker,2013-06-03 10:01:00,
2013-06-03 05:06:00,48.0,42.8,29.95,East,98,1.0,2.0,82,0.00,,,0.00,WeatherTracker,2013-06-03 10:06:00,
2013-06-03 05:11:00,48.0,42.8,29.95,East,98,1.0,2.0,82,0.00,,,0.00,WeatherTracker,2013-06-03 10:11:00,
2013-06-03 05:16:00,48.0,42.5,29.95,East,98,1.0,2.0,81,0.00,,,0.00,WeatherTracker,2013-06-03 10:16:00,
2013-06-03 05:21:00,48.0,42.5,29.95,East,97,1.0,2.0,81,0.00,,,0.00,WeatherTracker,2013-06-03 10:21:00,
2013-06-03 05:26:00,47.9,42.4,29.95,East,97,0.0,2.0,81,0.00,,,0.00,WeatherTracker,2013-06-03 10:26:00,
2013-06-03 05:31:00,47.9,42.4,29.95,East,97,1.0,1.0,81,0.00,,,0.00,WeatherTracker,2013-06-03 10:31:00,
2013-06-03 05:36:00,47.7,42.2,29.95,East,97,1.0,2.0,81,0.00,,,0.00,WeatherTracker,2013-06-03 10:36:00,
2013-06-03 05:41:00,47.7,42.2,29.95,East,101,0.0,2.0,81,0.00,,,0.00,WeatherTracker,2013-06-03 10:41:00,
2013-06-03 05:46:00,47.7,42.2,29.95,ESE,110,1.0,2.0,81,0.00,,,0.00,WeatherTracker,2013-06-03 10:46:00,
2013-06-03 05:51:00,47.7,42.2,29.95,ESE,114,1.0,2.0,81,0.00,,,0.00,WeatherTracker,2013-06-03 10:51:00,
2013-06-03 05:56:00,47.7,42.2,29.95,SE,128,1.0,3.0,81,0.00,,,0.00,WeatherTracker,2013-06-03 10:56:00,
2013-06-03 06:01:00,47.7,42.5,29.95,SE,129,1.0,3.0,82,0.00,,,0.00,WeatherTracker,2013-06-03 11:01:00,
2013-06-03 06:06:00,47.9,42.7,29.95,SE,131,2.0,3.0,82,0.00,,,0.00,WeatherTracker,2013-06-03 11:06:00,
2013-06-03 06:11:00,48.0,42.8,29.95,SE,141,1.0,3.0,82,0.00,,,0.00,WeatherTracker,2013-06-03 11:11:00,
2013-06-03 06:16:00,48.3,43.1,29.96,SE,134,2.0,3.0,82,0.00,,,0.00,WeatherTracker,2013-06-03 11:16:00,
2013-06-03 06:21:00,48.6,43.4,29.96,SE,135,2.0,3.0,82,0.00,,,0.00,WeatherTracker,2013-06-03 11:21:00,
2013-06-03 06:26:00,49.1,43.5,29.96,SSE,152,1.0,5.0,81,0.00,,,0.00,WeatherTracker,2013-06-03 11:26:00,
2013-06-03 06:31:00,49.5,43.9,29.96,SSE,156,2.0,5.0,81,0.00,,,0.00,WeatherTracker,2013-06-03 11:31:00,
2013-06-03 06:37:00,50.1,44.5,29.96,South,177,4.0,6.0,81,0.00,,,0.00,WeatherTracker,2013-06-03 11:37:00,
2013-06-03 06:42:00,50.5,44.2,29.96,South,183,5.0,7.0,79,0.00,,,0.00,WeatherTracker,2013-06-03 11:42:00,
2013-06-03 06:47:00,51.0,44.0,29.96,SSE,151,5.0,7.0,77,0.00,,,0.00,WeatherTracker,2013-06-03 11:47:00,
2013-06-03 10:03:00,60.9,47.4,29.93,SE,135,4.0,0.0,61,0.00,,,0.00,WeatherTracker,2013-06-03 15:03:00,
2013-06-03 10:08:00,61.2,48.1,29.93,SE,124,5.0,9.0,62,0.00,,,0.00,WeatherTracker,2013-06-03 15:08:00,
2013-06-03 10:13:00,61.3,47.7,29.93,SE,145,5.0,10.0,61,0.00,,,0.00,WeatherTracker,2013-06-03 15:13:00,
2013-06-03 10:18:00,61.6,48.0,29.93,SE,141,8.0,12.0,61,0.00,,,0.00,WeatherTracker,2013-06-03 15:18:00,
2013-06-03 10:23:00,62.0,48.0,29.93,SSE,155,8.0,12.0,60,0.00,,,0.00,WeatherTracker,2013-06-03 15:23:00,
2013-06-03 10:28:00,62.3,47.8,29.93,SSE,160,10.0,14.0,59,0.00,,,0.00,WeatherTracker,2013-06-03 15:28:00,
2013-06-03 10:33:00,62.3,47.3,29.92,SE,139,3.0,16.0,58,0.00,,,0.00,WeatherTracker,2013-06-03 15:33:00,
2013-06-03 10:38:00,62.1,46.7,29.92,SE,145,8.0,16.0,57,0.00,,,0.00,WeatherTracker,2013-06-03 15:38:00,
2013-06-03 10:43:00,61.8,46.9,29.92,SSE,160,5.0,19.0,58,0.00,,,0.00,WeatherTracker,2013-06-03 15:43:00,
2013-06-03 10:48:00,61.8,46.9,29.91,SSW,200,5.0,19.0,58,0.00,,,0.00,WeatherTracker,2013-06-03 15:48:00,
2013-06-03 10:53:00,61.8,46.9,29.91,SE,146,6.0,16.0,58,0.00,,,0.00,WeatherTracker,2013-06-03 15:53:00,
2013-06-03 10:58:00,62.0,46.6,29.91,South,176,10.0,16.0,57,0.00,,,0.00,WeatherTracker,2013-06-03 15:58:00,
2013-06-03 11:03:00,62.0,47.0,29.91,SSE,156,8.0,18.0,58,0.00,,,0.00,WeatherTracker,2013-06-03 16:03:00,
2013-06-03 11:09:00,62.1,47.1,29.91,SE,139,6.0,18.0,58,0.00,,,0.00,WeatherTracker,2013-06-03 16:09:00,
2013-06-03 11:14:00,62.6,46.7,29.89,South,183,8.0,17.0,56,0.00,,,0.00,WeatherTracker,2013-06-03 16:14:00,
2013-06-03 11:19:00,62.9,46.0,29.89,South,172,13.0,19.0,54,0.00,,,0.00,WeatherTracker,2013-06-03 16:19:00,
2013-06-03 11:24:00,62.9,46.0,29.89,ESE,110,14.0,22.0,54,0.00,,,0.00,WeatherTracker,2013-06-03 16:24:00,
2013-06-03 11:29:00,62.9,46.0,29.89,SSE,160,8.0,26.0,54,0.00,,,0.00,WeatherTracker,2013-06-03 16:29:00,
2013-06-03 11:34:00,63.1,46.2,29.89,South,182,16.0,26.0,54,0.00,,,0.00,WeatherTracker,2013-06-03 16:34:00,
2013-06-03 11:39:00,63.5,46.6,29.89,ESE,122,6.0,21.0,54,0.00,,,0.00,WeatherTracker,2013-06-03 16:39:00,
2013-06-03 11:44:00,64.2,46.7,29.89,South,182,7.0,21.0,53,0.00,,,0.00,WeatherTracker,2013-06-03 16:44:00,
2013-06-03 11:49:00,64.5,47.0,29.89,SSE,166,16.0,22.0,53,0.00,,,0.00,WeatherTracker,2013-06-03 16:49:00,
2013-06-03 11:54:00,65.0,46.9,29.89,ESE,118,12.0,22.0,52,0.00,,,0.00,WeatherTracker,2013-06-03 16:54:00,
2013-06-03 11:59:00,65.5,46.9,29.88,South,170,12.0,20.0,51,0.00,,,0.00,WeatherTracker,2013-06-03 16:59:00,
2013-06-03 12:04:00,66.0,46.8,29.88,SE,129,16.0,24.0,50,0.00,,,0.00,WeatherTracker,2013-06-03 17:04:00,
2013-06-03 12:10:00,66.4,47.2,29.88,SE,146,7.0,25.0,50,0.00,,,0.00,WeatherTracker,2013-06-03 17:10:00,
2013-06-03 12:15:00,67.1,47.8,29.87,SE,135,8.0,18.0,50,0.00,,,0.00,WeatherTracker,2013-06-03 17:15:00,
2013-06-03 12:20:00,67.1,46.2,29.87,SSE,163,15.0,27.0,47,0.00,,,0.00,WeatherTracker,2013-06-03 17:20:00,
2013-06-03 12:25:00,67.6,47.8,29.87,South,189,16.0,27.0,49,0.00,,,0.00,WeatherTracker,2013-06-03 17:25:00,
2013-06-03 12:30:00,67.4,46.5,29.87,ESE,122,12.0,25.0,47,0.00,,,0.00,WeatherTracker,2013-06-03 17:30:00,
2013-06-03 12:35:00,66.9,46.6,29.87,South,172,7.0,25.0,48,0.00,,,0.00,WeatherTracker,2013-06-03 17:35:00,
2013-06-03 12:40:00,66.9,45.4,29.87,SE,134,13.0,24.0,46,0.00,,,0.00,WeatherTracker,2013-06-03 17:40:00,
2013-06-03 12:45:00,67.4,46.5,29.87,SSE,149,12.0,22.0,47,0.00,,,0.00,WeatherTracker,2013-06-03 17:45:00,
2013-06-03 12:50:00,67.8,46.3,29.87,SSW,200,17.0,19.0,46,0.00,,,0.00,WeatherTracker,2013-06-03 17:50:00,
2013-06-03 12:55:00,67.8,45.1,29.87,SE,141,19.0,21.0,44,0.00,,,0.00,WeatherTracker,2013-06-03 17:55:00,
2013-06-03 13:00:00,67.4,44.7,29.86,South,182,6.0,25.0,44,0.00,,,0.00,WeatherTracker,2013-06-03 18:00:00,
2013-06-03 13:05:00,67.6,45.5,29.86,South,173,8.0,25.0,45,0.00,,,0.00,WeatherTracker,2013-06-03 18:05:00,
2013-06-03 13:10:00,68.4,46.2,29.86,SSE,158,7.0,22.0,45,0.00,,,0.00,WeatherTracker,2013-06-03 18:10:00,
2013-06-03 13:15:00,68.9,45.5,29.85,SE,141,12.0,24.0,43,0.00,,,0.00,WeatherTracker,2013-06-03 18:15:00,
2013-06-03 13:20:00,69.3,45.8,29.85,SE,145,10.0,24.0,43,0.00,,,0.00,WeatherTracker,2013-06-03 18:20:00,
2013-06-03 13:25:00,69.6,45.5,29.85,SE,129,21.0,25.0,42,0.00,,,0.00,WeatherTracker,2013-06-03 18:25:00,
2013-06-03 13:31:00,69.8,46.3,29.84,SSW,210,7.0,25.0,43,0.00,,,0.00,WeatherTracker,2013-06-03 18:31:00,
2013-06-03 13:36:00,70.1,46.6,29.84,South,186,16.0,24.0,43,0.00,,,0.00,WeatherTracker,2013-06-03 18:36:00,
2013-06-03 13:41:00,70.3,46.1,29.84,ESE,115,10.0,24.0,42,0.00,,,0.00,WeatherTracker,2013-06-03 18:41:00,
2013-06-03 13:46:00,70.1,45.9,29.84,SE,146,13.0,22.0,42,0.00,,,0.00,WeatherTracker,2013-06-03 18:46:00,
2013-06-03 13:51:00,69.8,44.4,29.84,SE,146,8.0,25.0,40,0.00,,,0.00,WeatherTracker,2013-06-03 18:51:00,
2013-06-03 13:56:00,69.6,44.2,29.84,East,100,18.0,25.0,40,0.00,,,0.00,WeatherTracker,2013-06-03 18:56:00,
2013-06-03 14:01:00,69.8,43.7,29.83,SSE,149,11.0,21.0,39,0.00,,,0.00,WeatherTracker,2013-06-03 19:01:00,
2013-06-03 14:06:00,69.9,44.5,29.83,SE,124,12.0,21.0,40,0.00,,,0.00,WeatherTracker,2013-06-03 19:06:00,
2013-06-03 14:11:00,69.9,43.1,29.83,SSE,149,24.0,24.0,38,0.00,,,0.00,WeatherTracker,2013-06-03 19:11:00,
2013-06-03 14:16:00,70.1,44.0,29.83,South,169,10.0,26.0,39,0.00,,,0.00,WeatherTracker,2013-06-03 19:16:00,
2013-06-03 14:21:00,70.4,44.2,29.83,SE,134,16.0,26.0,39,0.00,,,0.00,WeatherTracker,2013-06-03 19:21:00,
2013-06-03 14:26:00,70.8,43.9,29.83,ESE,122,14.0,27.0,38,0.00,,,0.00,WeatherTracker,2013-06-03 19:26:00,
2013-06-03 14:31:00,70.9,44.0,29.82,SE,134,8.0,27.0,38,0.00,,,0.00,WeatherTracker,2013-06-03 19:31:00,
2013-06-03 14:36:00,71.1,45.5,29.82,ESE,122,10.0,21.0,40,0.00,,,0.00,WeatherTracker,2013-06-03 19:36:00,
2013-06-03 14:41:00,71.1,44.9,29.82,SE,129,7.0,18.0,39,0.00,,,0.00,WeatherTracker,2013-06-03 19:41:00,
2013-06-03 14:46:00,71.3,43.7,29.82,SSE,148,14.0,24.0,37,0.00,,,0.00,WeatherTracker,2013-06-03 19:46:00,
2013-06-03 14:51:00,71.3,43.7,29.82,East,81,5.0,24.0,37,0.00,,,0.00,WeatherTracker,2013-06-03 19:51:00,
2013-06-03 14:56:00,71.1,43.5,29.82,ESE,103,18.0,21.0,37,0.00,,,0.00,WeatherTracker,2013-06-03 19:56:00,
2013-06-03 15:01:00,71.3,44.4,29.82,ENE,76,11.0,20.0,38,0.00,,,0.00,WeatherTracker,2013-06-03 20:01:00,
2013-06-03 15:06:00,71.8,45.5,29.82,SSE,151,19.0,20.0,39,0.00,,,0.00,WeatherTracker,2013-06-03 20:06:00,
2013-06-03 15:11:00,72.1,44.4,29.82,ESE,105,13.0,19.0,37,0.00,,,0.00,WeatherTracker,2013-06-03 20:11:00,
2013-06-03 15:16:00,72.3,45.3,29.80,ESE,104,14.0,22.0,38,0.00,,,0.00,WeatherTracker,2013-06-03 20:16:00,
2013-06-03 15:21:00,72.5,44.0,29.80,South,170,7.0,22.0,36,0.00,,,0.00,WeatherTracker,2013-06-03 20:21:00,
2013-06-03 15:26:00,72.7,44.2,29.80,ESE,108,10.0,22.0,36,0.00,,,0.00,WeatherTracker,2013-06-03 20:26:00,
2013-06-03 15:31:00,72.8,43.5,29.79,SE,141,20.0,22.0,35,0.00,,,0.00,WeatherTracker,2013-06-03 20:31:00,
2013-06-03 15:37:00,72.8,43.5,29.79,SE,125,8.0,22.0,35,0.00,,,0.00,WeatherTracker,2013-06-03 20:37:00,
2013-06-03 15:42:00,72.8,43.5,29.79,NE,45,6.0,22.0,35,0.00,,,0.00,WeatherTracker,2013-06-03 20:42:00,
2013-06-03 15:47:00,73.0,43.7,29.77,SSE,160,16.0,26.0,35,0.00,,,0.00,WeatherTracker,2013-06-03 20:47:00,
2013-06-03 15:52:00,73.2,43.9,29.77,SE,128,14.0,26.0,35,0.00,,,0.00,WeatherTracker,2013-06-03 20:52:00,
2013-06-03 15:57:00,73.2,41.6,29.77,South,182,13.0,22.0,32,0.00,,,0.00,WeatherTracker,2013-06-03 20:57:00,
2013-06-03 16:02:00,73.2,42.4,29.77,SSE,162,13.0,26.0,33,0.00,,,0.00,WeatherTracker,2013-06-03 21:02:00,
2013-06-03 16:07:00,73.2,43.1,29.77,East,94,17.0,26.0,34,0.00,,,0.00,WeatherTracker,2013-06-03 21:07:00,
2013-06-03 16:12:00,73.3,40.8,29.77,SSE,163,8.0,28.0,31,0.00,,,0.00,WeatherTracker,2013-06-03 21:12:00,
2013-06-03 16:17:00,73.3,41.6,29.77,SE,145,13.0,28.0,32,0.00,,,0.00,WeatherTracker,2013-06-03 21:17:00,
2013-06-03 16:22:00,73.2,42.4,29.77,South,170,12.0,25.0,33,0.00,,,0.00,WeatherTracker,2013-06-03 21:22:00,
2013-06-03 16:27:00,73.2,42.4,29.77,SSE,158,9.0,27.0,33,0.00,,,0.00,WeatherTracker,2013-06-03 21:27:00,
2013-06-03 16:32:00,73.2,42.4,29.76,SE,128,12.0,27.0,33,0.00,,,0.00,WeatherTracker,2013-06-03 21:32:00,
2013-06-03 16:37:00,73.3,44.0,29.76,ENE,57,5.0,22.0,35,0.00,,,0.00,WeatherTracker,2013-06-03 21:37:00,
2013-06-03 16:42:00,73.5,43.4,29.76,ESE,121,13.0,24.0,34,0.00,,,0.00,WeatherTracker,2013-06-03 21:42:00,
2013-06-03 16:47:00,73.5,43.4,29.75,ESE,117,10.0,27.0,34,0.00,,,0.00,WeatherTracker,2013-06-03 21:47:00,
2013-06-03 16:52:00,73.7,42.8,29.75,South,170,13.0,27.0,33,0.00,,,0.00,WeatherTracker,2013-06-03 21:52:00,
2013-06-03 16:57:00,73.7,42.0,29.75,South,180,6.0,26.0,32,0.00,,,0.00,WeatherTracker,2013-06-03 21:57:00,
2013-06-03 17:02:00,73.3,40.8,29.75,SE,128,13.0,28.0,31,0.00,,,0.00,WeatherTracker,2013-06-03 22:02:00,
2013-06-03 17:07:00,73.3,41.6,29.75,SE,129,14.0,29.0,32,0.00,,,0.00,WeatherTracker,2013-06-03 22:07:00,
2013-06-03 17:12:00,73.5,43.4,29.75,South,177,15.0,29.0,34,0.00,,,0.00,WeatherTracker,2013-06-03 22:12:00,
2013-06-03 17:17:00,73.5,41.8,29.74,South,180,17.0,24.0,32,0.00,,,0.00,WeatherTracker,2013-06-03 22:17:00,
2013-06-03 17:22:00,73.5,43.4,29.74,SSE,148,12.0,28.0,34,0.00,,,0.00,WeatherTracker,2013-06-03 22:22:00,
2013-06-03 17:28:00,73.5,43.4,29.74,SE,141,11.0,28.0,34,0.00,,,0.00,WeatherTracker,2013-06-03 22:28:00,
2013-06-03 17:33:00,73.5,42.6,29.75,SSW,200,17.0,28.0,33,0.00,,,0.00,WeatherTracker,2013-06-03 22:33:00,
2013-06-03 17:38:00,73.5,43.4,29.75,SE,141,17.0,32.0,34,0.00,,,0.00,WeatherTracker,2013-06-03 22:38:00,
2013-06-03 17:43:00,73.5,42.6,29.75,SE,141,10.0,32.0,33,0.00,,,0.00,WeatherTracker,2013-06-03 22:43:00,
2013-06-03 17:48:00,73.5,43.4,29.76,ESE,110,7.0,27.0,34,0.00,,,0.00,WeatherTracker,2013-06-03 22:48:00,
2013-06-03 17:53:00,73.5,42.6,29.76,SE,142,18.0,27.0,33,0.00,,,0.00,WeatherTracker,2013-06-03 22:53:00,
2013-06-03 17:58:00,73.2,43.1,29.76,South,179,8.0,25.0,34,0.00,,,0.00,WeatherTracker,2013-06-03 22:58:00,
2013-06-03 18:03:00,73.2,43.1,29.76,SE,131,10.0,25.0,34,0.00,,,0.00,WeatherTracker,2013-06-03 23:03:00,
2013-06-03 18:08:00,73.2,42.4,29.76,South,179,12.0,26.0,33,0.00,,,0.00,WeatherTracker,2013-06-03 23:08:00,
2013-06-03 18:13:00,73.2,43.9,29.76,SE,135,12.0,26.0,35,0.00,,,0.00,WeatherTracker,2013-06-03 23:13:00,
2013-06-03 18:18:00,73.2,44.6,29.76,South,187,8.0,24.0,36,0.00,,,0.00,WeatherTracker,2013-06-03 23:18:00,
2013-06-03 18:23:00,73.2,43.9,29.76,SE,127,19.0,24.0,35,0.00,,,0.00,WeatherTracker,2013-06-03 23:23:00,
2013-06-03 18:28:00,73.0,43.0,29.76,ESE,112,14.0,26.0,34,0.00,,,0.00,WeatherTracker,2013-06-03 23:28:00,
2013-06-03 18:33:00,73.0,43.0,29.76,ESE,121,11.0,26.0,34,0.00,,,0.00,WeatherTracker,2013-06-03 23:33:00,
2013-06-03 18:38:00,73.0,43.7,29.76,SSE,168,14.0,25.0,35,0.00,,,0.00,WeatherTracker,2013-06-03 23:38:00,
2013-06-03 18:43:00,73.0,43.7,29.77,SSE,165,13.0,25.0,35,0.00,,,0.00,WeatherTracker,2013-06-03 23:43:00,
2013-06-03 18:48:00,73.0,44.5,29.77,SSE,165,14.0,24.0,36,0.00,,,0.00,WeatherTracker,2013-06-03 23:48:00,
2013-06-03 18:53:00,72.8,43.5,29.77,SSE,148,13.0,24.0,35,0.00,,,0.00,WeatherTracker,2013-06-03 23:53:00,
2013-06-03 18:59:00,72.8,45.0,29.77,South,186,8.0,21.0,37,0.00,,,0.00,WeatherTracker,2013-06-03 23:59:00,
2013-06-03 19:04:00,72.8,45.0,29.77,ESE,112,5.0,21.0,37,0.00,,,0.00,WeatherTracker,2013-06-04 00:04:00,
2013-06-03 19:09:00,72.7,44.2,29.77,South,190,7.0,20.0,36,0.00,,,0.00,WeatherTracker,2013-06-04 00:09:00,
2013-06-03 19:14:00,72.3,45.3,29.77,SSW,200,7.0,22.0,38,0.00,,,0.00,WeatherTracker,2013-06-04 00:14:00,
2013-06-03 19:19:00,72.1,45.1,29.77,SSE,165,8.0,22.0,38,0.00,,,0.00,WeatherTracker,2013-06-04 00:19:00,
2013-06-03 19:24:00,72.0,44.3,29.77,SSW,193,10.0,22.0,37,0.00,,,0.00,WeatherTracker,2013-06-04 00:24:00,
2013-06-03 21:42:00,67.3,46.4,29.82,SSE,163,5.0,0.0,47,0.00,,,0.00,WeatherSnoop2.1.5,2013-06-04 02:42:00,
2013-06-03 21:47:00,67.1,46.2,29.82,ESE,118,4.0,0.0,47,0.00,,,0.00,WeatherSnoop2.1.5,2013-06-04 02:47:00,
2013-06-03 21:52:00,67.1,46.7,29.82,ENE,70,5.0,0.0,48,0.00,,,0.00,WeatherSnoop2.1.5,2013-06-04 02:52:00,
2013-06-03 21:57:00,66.9,46.6,29.82,SE,144,6.0,0.0,48,0.00,,,0.00,WeatherSnoop2.1.5,2013-06-04 02:57:00,
2013-06-03 22:02:00,66.8,47.0,29.82,ESE,114,6.0,0.0,49,0.00,,,0.00,WeatherSnoop2.1.5,2013-06-04 03:02:00,
2013-06-03 22:07:00,66.4,46.7,29.82,SE,129,10.0,17.0,49,0.00,,,0.00,WeatherSnoop2.1.5,2013-06-04 03:07:00,
2013-06-03 22:12:00,66.4,46.7,29.82,ESE,121,6.0,17.0,49,0.00,,,0.00,WeatherSnoop2.1.5,2013-06-04 03:12:00,
2013-06-03 22:17:00,66.3,47.1,29.81,SE,142,6.0,17.0,50,0.00,,,0.00,WeatherSnoop2.1.5,2013-06-04 03:17:00,
2013-06-03 22:22:00,66.1,46.9,29.81,ESE,118,9.0,0.0,50,0.00,,,0.00,WeatherSnoop2.1.5,2013-06-04 03:22:00,
2013-06-03 22:27:00,66.0,46.8,29.81,ENE,64,8.0,19.0,50,0.00,,,0.00,WeatherSnoop2.1.5,2013-06-04 03:27:00,
2013-06-03 22:32:00,65.8,47.2,29.80,SE,141,6.0,19.0,51,0.00,,,0.00,WeatherSnoop2.1.5,2013-06-04 03:32:00,
2013-06-03 22:37:00,65.6,47.0,29.80,ENE,59,5.0,16.0,51,0.00,,,0.00,WeatherSnoop2.1.5,2013-06-04 03:37:00,
2013-06-03 22:42:00,65.5,47.4,29.80,SE,134,3.0,14.0,52,0.00,,,0.00,WeatherSnoop2.1.5,2013-06-04 03:42:00,
2013-06-03 22:47:00,65.2,47.6,29.81,ESE,122,8.0,0.0,53,0.00,,,0.00,WeatherSnoop2.1.5,2013-06-04 03:47:00,
2013-06-03 22:52:00,64.8,47.3,29.81,South,180,5.0,0.0,53,0.00,,,0.00,WeatherSnoop2.1.5,2013-06-04 03:52:00,
2013-06-03 22:57:00,64.5,47.5,29.81,ESE,103,5.0,16.0,54,0.00,,,0.00,WeatherSnoop2.1.5,2013-06-04 03:57:00,
2013-06-03 23:02:00,64.3,47.8,29.81,SE,135,11.0,16.0,55,0.00,,,0.00,WeatherSnoop2.1.5,2013-06-04 04:02:00,
2013-06-03 23:03:00,64.3,47.8,29.81,East,88,7.0,16.0,55,0.00,,,0.00,WeatherSnoop2.1.5,2013-06-04 04:03:00,
2013-06-03 23:04:00,64.3,48.3,29.81,ENE,74,6.0,16.0,56,0.00,,,0.00,WeatherSnoop2.1.5,2013-06-04 04:04:00,
2013-06-03 23:05:00,64.2,48.2,29.81,SE,131,13.0,0.0,56,0.00,,,0.00,WeatherSnoop2.1.5,2013-06-04 04:05:00,
2013-06-03 23:10:00,64.0,48.5,29.81,ESE,105,10.0,14.0,57,0.00,,,0.00,WeatherSnoop2.1.5,2013-06-04 04:10:00,
2013-06-03 23:15:00,63.7,48.6,29.80,SE,139,9.0,17.0,58,0.00,,,0.00,WeatherSnoop2.1.5,2013-06-04 04:15:00,
2013-06-03 23:20:00,63.5,48.5,29.80,SE,132,10.0,17.0,58,0.00,,,0.00,WeatherSnoop2.1.5,2013-06-04 04:20:00,
2013-06-03 23:25:00,63.4,48.8,29.80,SE,139,5.0,17.0,59,0.00,,,0.00,WeatherSnoop2.1.5,2013-06-04 04:25:00,
2013-06-03 23:30:00,63.2,48.6,29.79,ESE,120,8.0,17.0,59,0.00,,,0.00,WeatherSnoop2.1.5,2013-06-04 04:30:00,
2013-06-03 23:35:00,63.2,49.1,29.79,North,7,10.0,18.0,60,0.00,,,0.00,WeatherSnoop2.1.5,2013-06-04 04:35:00,
2013-06-03 23:40:00,63.2,49.1,29.79,SSE,168,6.0,18.0,60,0.00,,,0.00,WeatherSnoop2.1.5,2013-06-04 04:40:00,
2013-06-03 23:45:00,63.2,49.1,29.82,South,184,6.0,17.0,60,0.00,,,0.00,WeatherSnoop2.1.5,2013-06-04 04:45:00,
2013-06-03 23:50:00,63.1,49.0,29.82,SSE,159,6.0,0.0,60,0.00,,,0.00,WeatherSnoop2.1.5,2013-06-04 04:50:00,
2013-06-03 23:55:00,63.1,49.4,29.82,SE,131,6.0,0.0,61,0.00,,,0.00,WeatherSnoop2.1.5,2013-06-04 04:55:00,